GLO1490 SBSP-SBVT

Flight info

Callsign GLO1490
Flight time 1h 9m
Altitude 35000
Route DCT
Aircraft B738/M-SDFGIKLORWXY/LB1

Departure

Time 2026-04-15 13:27
Airport Congonhas–Deputado Freitas Nobre Airport (SBSP)

Arrival

Time 2026-04-15 14:36
Airport Eurico de Aguiar Salles International Airport (SBVT)
Time Latitude Longitude Altitude Speed Heading
2026-04-15 13:13 -23.62538 -46.65944 2599 ft 0 kts 237°
2026-04-15 13:20 -23.62536 -46.65940 2600 ft 3 kts 237°
2026-04-15 13:21 -23.62523 -46.65915 2600 ft 4 kts 262°
2026-04-15 13:21 -23.62527 -46.65899 2600 ft 3 kts 327°
2026-04-15 13:21 -23.62543 -46.65888 2600 ft 0 kts 327°
2026-04-15 13:24 -23.62539 -46.65890 2600 ft 3 kts 337°
2026-04-15 13:24 -23.62497 -46.65897 2600 ft 8 kts 351°
2026-04-15 13:24 -23.62435 -46.65915 2600 ft 10 kts 331°
2026-04-15 13:24 -23.62368 -46.65960 2599 ft 12 kts 328°
2026-04-15 13:25 -23.62290 -46.66013 2599 ft 14 kts 328°
2026-04-15 13:25 -23.62201 -46.66073 2590 ft 16 kts 328°
2026-04-15 13:25 -23.62127 -46.66123 2590 ft 8 kts 328°
2026-04-15 13:25 -23.62072 -46.66137 2597 ft 9 kts 15°
2026-04-15 13:26 -23.62051 -46.66084 2592 ft 9 kts 121°
2026-04-15 13:26 -23.62135 -46.66015 2597 ft 41 kts 147°
2026-04-15 13:26 -23.62631 -46.65673 2604 ft 125 kts 147°
2026-04-15 13:26 -23.63212 -46.65257 2667 ft 167 kts 145°
2026-04-15 13:27 -23.64246 -46.64529 3451 ft 182 kts 146°
2026-04-15 13:27 -23.64601 -46.64280 3778 ft 183 kts 142°
2026-04-15 13:27 -23.64936 -46.63961 4226 ft 177 kts 126°
2026-04-15 13:27 -23.65548 -46.62747 5100 ft 196 kts 115°
2026-04-15 13:28 -23.66198 -46.61321 5398 ft 223 kts 116°
2026-04-15 13:28 -23.66945 -46.59721 5746 ft 247 kts 116°
2026-04-15 13:28 -23.67781 -46.57972 6088 ft 269 kts 117°
2026-04-15 13:28 -23.68675 -46.56144 6941 ft 275 kts 117°
2026-04-15 13:29 -23.69584 -46.54305 7893 ft 277 kts 118°
2026-04-15 13:29 -23.70514 -46.52433 8785 ft 281 kts 118°
2026-04-15 13:29 -23.71437 -46.50562 9595 ft 286 kts 115°
2026-04-15 13:29 -23.71925 -46.48458 10428 ft 290 kts 91°
2026-04-15 13:30 -23.71772 -46.46191 10817 ft 313 kts 83°
2026-04-15 13:30 -23.71420 -46.43716 11076 ft 336 kts 81°
2026-04-15 13:30 -23.71024 -46.41199 11664 ft 345 kts 81°
2026-04-15 13:30 -23.70617 -46.38597 12434 ft 349 kts 81°
2026-04-15 13:31 -23.70218 -46.35971 13175 ft 353 kts 81°
2026-04-15 13:31 -23.69825 -46.33309 13826 ft 359 kts 82°
2026-04-15 13:31 -23.69430 -46.30583 14446 ft 365 kts 82°
2026-04-15 13:31 -23.69034 -46.27824 15083 ft 370 kts 82°
2026-04-15 13:32 -23.68634 -46.25026 15719 ft 375 kts 82°
2026-04-15 13:32 -23.68229 -46.22194 16325 ft 380 kts 82°
2026-04-15 13:32 -23.67818 -46.19320 16896 ft 386 kts 82°
2026-04-15 13:32 -23.67400 -46.16411 17460 ft 391 kts 82°
2026-04-15 13:33 -23.66962 -46.13463 18000 ft 396 kts 79°
2026-04-15 13:33 -23.66031 -46.10617 18520 ft 402 kts 64°
2026-04-15 13:33 -23.64772 -46.07873 19101 ft 405 kts 63°
2026-04-15 13:33 -23.63500 -46.05156 19626 ft 409 kts 63°
2026-04-15 13:34 -23.62200 -46.02375 20131 ft 413 kts 63°
2026-04-15 13:34 -23.60898 -45.99563 20642 ft 417 kts 64°
2026-04-15 13:34 -23.59592 -45.96719 21109 ft 422 kts 64°
2026-04-15 13:34 -23.58281 -45.93845 21577 ft 425 kts 64°
2026-04-15 13:35 -23.56964 -45.90945 22037 ft 429 kts 64°
2026-04-15 13:35 -23.55631 -45.88011 22483 ft 432 kts 64°
2026-04-15 13:35 -23.54293 -45.85063 22923 ft 436 kts 64°
2026-04-15 13:35 -23.52944 -45.82093 23359 ft 439 kts 65°
2026-04-15 13:36 -23.51582 -45.79097 23777 ft 442 kts 65°
2026-04-15 13:36 -23.50209 -45.76079 24168 ft 446 kts 65°
2026-04-15 13:36 -23.48826 -45.73043 24562 ft 449 kts 65°
2026-04-15 13:36 -23.47431 -45.69983 24959 ft 452 kts 65°
2026-04-15 13:37 -23.46028 -45.66906 25331 ft 455 kts 65°
2026-04-15 13:37 -23.44613 -45.63804 25700 ft 458 kts 65°
2026-04-15 13:37 -23.43190 -45.60686 26082 ft 460 kts 65°
2026-04-15 13:37 -23.41761 -45.57559 26442 ft 463 kts 65°
2026-04-15 13:38 -23.40321 -45.54408 26794 ft 465 kts 65°
2026-04-15 13:38 -23.38907 -45.51229 27146 ft 467 kts 69°
2026-04-15 13:38 -23.37968 -45.47845 27459 ft 467 kts 79°
2026-04-15 13:38 -23.37284 -45.44380 27806 ft 469 kts 81°
2026-04-15 13:39 -23.36630 -45.40897 28143 ft 471 kts 80°
2026-04-15 13:39 -23.35948 -45.37441 28462 ft 474 kts 79°
2026-04-15 13:39 -23.35213 -45.33932 28763 ft 476 kts 79°
2026-04-15 13:39 -23.34454 -45.30410 29069 ft 479 kts 79°
2026-04-15 13:40 -23.33687 -45.26873 29379 ft 481 kts 79°
2026-04-15 13:40 -23.32919 -45.23322 29654 ft 483 kts 79°
2026-04-15 13:40 -23.32148 -45.19748 29933 ft 485 kts 79°
2026-04-15 13:40 -23.31378 -45.16177 30313 ft 485 kts 79°
2026-04-15 13:41 -23.30607 -45.12611 30775 ft 482 kts 79°
2026-04-15 13:41 -23.29842 -45.09070 31235 ft 480 kts 79°
2026-04-15 13:41 -23.29089 -45.05588 31621 ft 479 kts 79°
2026-04-15 13:41 -23.28325 -45.02059 31970 ft 479 kts 79°
2026-04-15 13:42 -23.27561 -44.98533 32340 ft 477 kts 79°
2026-04-15 13:42 -23.26798 -44.95021 32749 ft 476 kts 79°
2026-04-15 13:42 -23.26038 -44.91521 33097 ft 476 kts 79°
2026-04-15 13:42 -23.25275 -44.88014 33475 ft 475 kts 79°
2026-04-15 13:43 -23.24514 -44.84526 33890 ft 472 kts 79°
2026-04-15 13:43 -23.23759 -44.81061 34220 ft 471 kts 80°
2026-04-15 13:43 -23.23003 -44.77594 34518 ft 471 kts 80°
2026-04-15 13:43 -23.22247 -44.74137 34881 ft 469 kts 80°
2026-04-15 13:44 -23.21495 -44.70697 35177 ft 469 kts 80°
2026-04-15 13:44 -23.20737 -44.67229 35160 ft 473 kts 80°
2026-04-15 13:44 -23.19234 -44.60335 35166 ft 467 kts 81°
2026-04-15 13:45 -23.17806 -44.53467 35169 ft 464 kts 81°
2026-04-15 13:47 -23.11742 -44.26156 35154 ft 466 kts 80°
2026-04-15 13:47 -23.10217 -44.19307 35148 ft 466 kts 80°
2026-04-15 13:48 -23.08689 -44.12458 35145 ft 467 kts 80°
2026-04-15 13:48 -23.07156 -44.05605 35139 ft 467 kts 80°
2026-04-15 13:49 -23.05617 -43.98736 35140 ft 467 kts 80°
2026-04-15 13:49 -23.04077 -43.91879 35136 ft 468 kts 81°
2026-04-15 13:50 -23.02533 -43.85019 35132 ft 468 kts 81°
2026-04-15 13:50 -23.00996 -43.78204 35130 ft 468 kts 81°
2026-04-15 13:51 -22.99434 -43.71346 35128 ft 468 kts 78°
2026-04-15 13:51 -22.97081 -43.64710 35131 ft 473 kts 70°
2026-04-15 13:52 -22.96584 -43.63475 35126 ft 473 kts 70°
2026-04-15 13:52 -22.94225 -43.57671 35128 ft 473 kts 70°
2026-04-15 13:53 -22.91616 -43.51145 35127 ft 473 kts 71°
2026-04-15 13:53 -22.89030 -43.44585 35122 ft 473 kts 71°
2026-04-15 13:54 -22.86465 -43.38068 35131 ft 472 kts 71°
2026-04-15 13:54 -22.83880 -43.31515 35125 ft 472 kts 71°
2026-04-15 13:55 -22.81182 -43.25030 35106 ft 475 kts 63°
2026-04-15 13:55 -22.77594 -43.18992 35102 ft 477 kts 59°
2026-04-15 13:56 -22.73876 -43.13032 35096 ft 477 kts 59°
2026-04-15 13:56 -22.70190 -43.07058 35101 ft 476 kts 60°
2026-04-15 13:57 -22.66542 -43.01081 35101 ft 476 kts 60°
2026-04-15 13:57 -22.62920 -42.95133 35111 ft 476 kts 60°
2026-04-15 13:58 -22.59271 -42.89147 35109 ft 476 kts 60°
2026-04-15 13:58 -22.55618 -42.83165 35115 ft 476 kts 60°
2026-04-15 13:59 -22.51955 -42.77177 35112 ft 476 kts 60°
2026-04-15 13:59 -22.48288 -42.71188 35111 ft 476 kts 60°
2026-04-15 14:00 -22.44653 -42.65257 35114 ft 476 kts 60°
2026-04-15 14:00 -22.40986 -42.59281 35110 ft 476 kts 60°
2026-04-15 14:01 -22.35499 -42.50350 35100 ft 476 kts 60°
2026-04-15 14:02 -22.31833 -42.44391 35106 ft 476 kts 60°
2026-04-15 14:02 -22.28107 -42.38473 35108 ft 477 kts 58°
2026-04-15 14:03 -22.24098 -42.32749 35119 ft 478 kts 56°
2026-04-15 14:03 -22.20008 -42.27051 35086 ft 479 kts 56°
2026-04-15 14:04 -22.15972 -42.21377 35095 ft 478 kts 56°
2026-04-15 14:04 -22.11945 -42.15676 35090 ft 477 kts 57°
2026-04-15 14:05 -22.07921 -42.09970 35072 ft 478 kts 57°
2026-04-15 14:05 -22.03901 -42.04276 35077 ft 477 kts 57°
2026-04-15 14:06 -21.99880 -41.98590 35081 ft 477 kts 57°
2026-04-15 14:06 -21.95847 -41.92893 35081 ft 478 kts 57°
2026-04-15 14:07 -21.91831 -41.87228 35080 ft 478 kts 57°
2026-04-15 14:07 -21.87797 -41.81542 35071 ft 476 kts 57°
2026-04-15 14:08 -21.84449 -41.76828 35080 ft 476 kts 56°
2026-04-15 14:08 -21.80419 -41.71159 35092 ft 476 kts 56°
2026-04-15 14:09 -21.76385 -41.65489 35075 ft 477 kts 57°
2026-04-15 14:09 -21.72342 -41.59814 35082 ft 477 kts 57°
2026-04-15 14:10 -21.68294 -41.54137 35071 ft 478 kts 56°
2026-04-15 14:10 -21.64246 -41.48466 35071 ft 478 kts 57°
2026-04-15 14:11 -21.60196 -41.42797 35074 ft 478 kts 57°
2026-04-15 14:11 -21.56128 -41.37107 35089 ft 483 kts 56°
2026-04-15 14:12 -21.52006 -41.31345 35077 ft 494 kts 56°
2026-04-15 14:12 -21.47454 -41.25683 34324 ft 510 kts 43°
2026-04-15 14:12 -21.44705 -41.23276 33659 ft 510 kts 40°
2026-04-15 14:13 -21.41887 -41.20943 32937 ft 511 kts 40°
2026-04-15 14:13 -21.39078 -41.18600 32185 ft 512 kts 40°
2026-04-15 14:13 -21.36305 -41.16214 31628 ft 508 kts 41°
2026-04-15 14:13 -21.33580 -41.13816 31094 ft 504 kts 41°
2026-04-15 14:14 -21.30921 -41.11460 30569 ft 500 kts 41°
2026-04-15 14:14 -21.28250 -41.09097 30033 ft 496 kts 41°
2026-04-15 14:14 -21.25592 -41.06758 29497 ft 492 kts 41°
2026-04-15 14:14 -21.22950 -41.04437 28963 ft 488 kts 41°
2026-04-15 14:15 -21.20329 -41.02136 28413 ft 484 kts 40°
2026-04-15 14:15 -21.17735 -40.99859 27885 ft 480 kts 40°
2026-04-15 14:15 -21.15159 -40.97597 27352 ft 476 kts 40°
2026-04-15 14:15 -21.12605 -40.95354 26824 ft 473 kts 40°
2026-04-15 14:16 -21.10072 -40.93131 26295 ft 469 kts 40°
2026-04-15 14:16 -21.07560 -40.90927 25776 ft 465 kts 40°
2026-04-15 14:16 -21.05060 -40.88736 25326 ft 459 kts 39°
2026-04-15 14:16 -21.02605 -40.86586 24874 ft 454 kts 39°
2026-04-15 14:17 -21.00202 -40.84482 24387 ft 450 kts 39°
2026-04-15 14:17 -20.97790 -40.82370 23886 ft 446 kts 39°
2026-04-15 14:17 -20.95392 -40.80271 23382 ft 443 kts 39°
2026-04-15 14:17 -20.93012 -40.78188 22874 ft 439 kts 39°
2026-04-15 14:18 -20.90658 -40.76129 22374 ft 435 kts 39°
2026-04-15 14:18 -20.88321 -40.74085 21876 ft 431 kts 39°
2026-04-15 14:18 -20.86000 -40.72056 21379 ft 427 kts 39°
2026-04-15 14:18 -20.83708 -40.70053 20885 ft 424 kts 39°
2026-04-15 14:19 -20.81460 -40.68100 20404 ft 420 kts 37°
2026-04-15 14:19 -20.78956 -40.66549 19991 ft 412 kts 20°
2026-04-15 14:19 -20.76315 -40.65426 19553 ft 407 kts 20°
2026-04-15 14:19 -20.73696 -40.64313 19086 ft 403 kts 20°
2026-04-15 14:20 -20.71096 -40.63196 18610 ft 400 kts 21°
2026-04-15 14:20 -20.68528 -40.62082 18139 ft 397 kts 21°
2026-04-15 14:20 -20.65990 -40.60973 17675 ft 393 kts 21°
2026-04-15 14:20 -20.63471 -40.59867 17196 ft 390 kts 21°
2026-04-15 14:21 -20.60975 -40.58770 16739 ft 386 kts 21°
2026-04-15 14:21 -20.58498 -40.57680 16266 ft 383 kts 21°
2026-04-15 14:21 -20.56048 -40.56602 15806 ft 380 kts 22°
2026-04-15 14:21 -20.53616 -40.55533 15356 ft 376 kts 22°
2026-04-15 14:22 -20.51206 -40.54474 14892 ft 373 kts 22°
2026-04-15 14:22 -20.48856 -40.53442 14457 ft 369 kts 22°
2026-04-15 14:22 -20.46457 -40.52388 14005 ft 366 kts 22°
2026-04-15 14:22 -20.44143 -40.51373 13567 ft 363 kts 22°
2026-04-15 14:23 -20.41818 -40.50352 13123 ft 360 kts 22°
2026-04-15 14:23 -20.39479 -40.49326 12673 ft 357 kts 22°
2026-04-15 14:23 -20.37189 -40.48322 12230 ft 354 kts 23°
2026-04-15 14:23 -20.34955 -40.47366 11926 ft 347 kts 20°
2026-04-15 14:24 -20.32628 -40.46670 11436 ft 347 kts 13°
2026-04-15 14:24 -20.30275 -40.46136 10976 ft 346 kts 12°
2026-04-15 14:24 -20.27911 -40.45614 10490 ft 345 kts 12°
2026-04-15 14:24 -20.25566 -40.45065 10016 ft 344 kts 13°
2026-04-15 14:25 -20.23290 -40.44507 9943 ft 322 kts 13°
2026-04-15 14:25 -20.21175 -40.43980 9867 ft 303 kts 13°
2026-04-15 14:25 -20.19176 -40.43481 9685 ft 289 kts 13°
2026-04-15 14:25 -20.17235 -40.42996 9247 ft 286 kts 13°
2026-04-15 14:26 -20.15316 -40.42516 8746 ft 288 kts 13°
2026-04-15 14:26 -20.13363 -40.42029 8280 ft 287 kts 13°
2026-04-15 14:26 -20.11436 -40.41516 7855 ft 283 kts 20°
2026-04-15 14:26 -20.09811 -40.40390 7420 ft 279 kts 49°
2026-04-15 14:27 -20.08803 -40.38662 7092 ft 273 kts 71°
2026-04-15 14:27 -20.08211 -40.36748 6815 ft 272 kts 75°
2026-04-15 14:27 -20.07655 -40.34820 6537 ft 273 kts 75°
2026-04-15 14:27 -20.07089 -40.32883 6228 ft 275 kts 75°
2026-04-15 14:28 -20.06513 -40.30954 5947 ft 272 kts 74°
2026-04-15 14:28 -20.05939 -40.29048 5670 ft 267 kts 74°
2026-04-15 14:28 -20.05375 -40.27178 5372 ft 260 kts 74°
2026-04-15 14:28 -20.04836 -40.25392 5117 ft 254 kts 74°
2026-04-15 14:29 -20.04325 -40.23617 4858 ft 246 kts 80°
2026-04-15 14:29 -20.04231 -40.21861 4621 ft 230 kts 100°
2026-04-15 14:29 -20.04649 -40.20279 4353 ft 216 kts 118°
2026-04-15 14:29 -20.05413 -40.18968 4135 ft 203 kts 134°
2026-04-15 14:30 -20.06433 -40.17997 3922 ft 194 kts 149°
2026-04-15 14:30 -20.07619 -40.17348 3765 ft 190 kts 164°
2026-04-15 14:30 -20.08876 -40.17073 3561 ft 179 kts 178°
2026-04-15 14:30 -20.10071 -40.17118 3374 ft 167 kts 191°
2026-04-15 14:31 -20.11190 -40.17419 3224 ft 166 kts 200°
2026-04-15 14:31 -20.12204 -40.17990 3082 ft 165 kts 214°
2026-04-15 14:31 -20.13069 -40.18795 2890 ft 165 kts 226°
2026-04-15 14:31 -20.13748 -40.19767 2715 ft 163 kts 237°
2026-04-15 14:32 -20.14295 -40.20829 2528 ft 164 kts 238°
2026-04-15 14:32 -20.14845 -40.21876 2393 ft 166 kts 238°
2026-04-15 14:32 -20.15423 -40.22970 2236 ft 168 kts 238°
2026-04-15 14:32 -20.15971 -40.24013 2106 ft 156 kts 237°
2026-04-15 14:33 -20.16477 -40.24976 1919 ft 143 kts 238°
2026-04-15 14:33 -20.16960 -40.25888 1729 ft 138 kts 237°
2026-04-15 14:33 -20.17453 -40.26754 1588 ft 141 kts 233°
2026-04-15 14:33 -20.18088 -40.27568 1397 ft 144 kts 219°
2026-04-15 14:34 -20.18903 -40.28153 1248 ft 139 kts 202°
2026-04-15 14:34 -20.19817 -40.28467 1010 ft 138 kts 191°
2026-04-15 14:34 -20.20754 -40.28617 833 ft 135 kts 180°
2026-04-15 14:34 -20.21702 -40.28559 657 ft 137 kts 173°
2026-04-15 14:35 -20.22643 -40.28421 492 ft 135 kts 171°
2026-04-15 14:35 -20.23593 -40.28274 332 ft 141 kts 172°
2026-04-15 14:35 -20.24581 -40.28142 97 ft 144 kts 173°
2026-04-15 14:35 -20.25504 -40.28008 22 ft 108 kts 172°
2026-04-15 14:36 -20.25925 -40.27946 22 ft 41 kts 172°
2026-04-15 14:36 -20.26152 -40.27913 20 ft 26 kts 172°
2026-04-15 14:36 -20.26237 -40.27900 19 ft 10 kts 172°
2026-04-15 14:36 -20.26306 -40.27890 19 ft 10 kts 172°
2026-04-15 14:37 -20.26377 -40.27880 19 ft 12 kts 174°
2026-04-15 14:37 -20.26485 -40.27879 18 ft 18 kts 182°
2026-04-15 14:37 -20.26585 -40.27901 20 ft 11 kts 214°
2026-04-15 14:37 -20.26611 -40.27977 21 ft 11 kts 268°
2026-04-15 14:38 -20.26606 -40.28059 20 ft 11 kts 273°
2026-04-15 14:38 -20.26603 -40.28103 20 ft 0 kts 273°